sat.trackr.live / text

‹ back to catalog

CAS500-2 RIDESHARE OBJE*

NORAD 69001 · 2026-100X

PAYLOAD ACTIVE UNKNOWN

§ Identity

Operator
Country
TBD
Launch date
2026-05-03
Launch site
AFWTR
Launch vehicle
Mass (kg)
RCS (m²)

External: N2YO · Heavens-Above · Gunter

§ Orbital elements

Epoch: 2026-05-25T00:00:02.000160Z

Period
96.58 min
Inclination
97.7375°
Eccentricity
0.0002978
Mean motion
14.91010040 rev/d
Perigee alt
592.7 km
Apogee alt
596.9 km
Semi-major
6,972.9 km
B*
2.6465e-3
RAAN
42.8657°
Arg perigee
205.4679°
Mean anomaly
114.8982°
Rev number
130

§ Raw data

CAS500-2 RIDESHARE OBJE*1 69001U 26100X   26145.00002315  .00026203  00000+0  26465-2 0  99912 69001  97.7375  42.8657 0002978 205.4679 114.8982 14.91010040  1304

JSON: /api/v1/satellites/69001 · /tle

For live sub-satellite position, see the globe view (requires WebGL).

§ Visibility from observer

Set your observer location to see the next 7 days of passes ≥ 10°. The values pass through the URL so the page stays shareable.

No JS? Fill the form by hand. The geolocation button needs JavaScript.